Weather History for Fort Myers, FL

Change the Weather History Date:

Thursday, March 3, 2011

  Actual Average Record
Temperature  
Mean Temperature 69 °F 68 °F  
Max Temperature 81 °F 79 °F 87 °F (1952)
Min Temperature 56 °F 58 °F 33 °F (1980)
Degree Days  
Heating Degree Days 0 1  
Month to date heating degree days 0 3  
Since 1 July heating degree days 420 263  
Cooling Degree Days 4 5  
Month to date cooling degree days 18 15  
Year to date cooling degree days 200 200  
Growing Degree Days 18 (Base 50)    
Moisture  
Dew Point 53 °F    
Average Humidity 60    
Maximum Humidity 86    
Minimum Humidity 35    
Precipitation  
Precipitation 0.00 in 0.09 in 2.00 in (1989)
Month to date precipitation 0.02 0.24  
Year to date precipitation 3.43 4.33  
Sea Level Pressure  
Sea Level Pressure 30.14 in    
Wind  
Wind Speed 12 mph (East)    
Max Wind Speed 25 mph    
Max Gust Speed 32 mph    
Visibility 10 miles    
Events      
T = Trace of Precipitation, MM = Missing Value Source: NWS Daily Summary

Daily Weather History Graph

Daily Weather History Graph

Search for Another Location

Airport:

Trip Planner

Search our weather history database for the weather conditions in past years. The results will help you decide how hot, cold, wet, or windy it might be!

Date:

Astronomy

Mar. 03, 2011 Rise Set
Actual Time 6:49 AM EST 6:29 PM EST
Civil Twilight 6:26 AM EST 6:52 PM EST
Nautical Twilight 5:59 AM EST 7:19 PM EST
Astronomical Twilight 5:32 AM EST 7:46 PM EST
Moon 5:52 AM EST (3/3) 5:41 PM EST (3/3)
Length of Visible Light 12h 26m
Length of Day
11h 40m
Waning Crescent, 1% of the Moon is Illuminated
Mar 3
Waning Crescent
Mar 4
New
Mar 12
First Quarter
Mar 19
Full
Mar 26
Last Quarter

Hourly Weather History & Observations

Time (EST) Temp. Dew Point Humidity Pressure Visibility Wind Dir Wind Speed Gust Speed Precip Events Conditions
12:53 AM 61.0 °F 52.0 °F 72% 30.12 in 10.0 mi ENE 6.9 mph - N/A   Clear
1:53 AM 60.1 °F 52.0 °F 75% 30.10 in 10.0 mi ENE 8.1 mph - N/A   Clear
2:53 AM 57.9 °F 52.0 °F 81% 30.09 in 10.0 mi ENE 6.9 mph - N/A   Clear
3:53 AM 57.9 °F 52.0 °F 81% 30.10 in 10.0 mi ENE 8.1 mph - N/A   Clear
4:53 AM 57.9 °F 52.0 °F 81% 30.11 in 10.0 mi ENE 5.8 mph - N/A   Clear
5:53 AM 57.9 °F 53.1 °F 84% 30.11 in 10.0 mi ENE 8.1 mph - N/A   Clear
6:53 AM 60.1 °F 53.1 °F 78% 30.13 in 10.0 mi ENE 10.4 mph - N/A   Clear
7:53 AM 62.1 °F 53.1 °F 72% 30.16 in 10.0 mi ENE 9.2 mph - N/A   Clear
8:51 AM 69.8 °F 55.4 °F 60% 30.16 in 10.0 mi ENE 12.7 mph 19.6 mph N/A   Clear
8:53 AM 69.1 °F 55.0 °F 61% 30.17 in 10.0 mi East 13.8 mph 20.7 mph N/A   Clear
9:53 AM 73.0 °F 53.1 °F 49% 30.18 in 10.0 mi ENE 19.6 mph 25.3 mph N/A   Clear
10:53 AM 75.9 °F 54.0 °F 46% 30.17 in 10.0 mi East 15.0 mph 25.3 mph N/A   Scattered Clouds
11:53 AM 79.0 °F 50.0 °F 36% 30.16 in 10.0 mi ESE 16.1 mph 19.6 mph N/A   Scattered Clouds
12:53 PM 80.1 °F 51.1 °F 36% 30.12 in 10.0 mi East 15.0 mph 26.5 mph N/A   Partly Cloudy
1:53 PM 79.0 °F 48.9 °F 35% 30.11 in 10.0 mi East 20.7 mph 27.6 mph N/A   Scattered Clouds
2:53 PM 80.1 °F 50.0 °F 35% 30.10 in 10.0 mi East 19.6 mph 32.2 mph N/A   Scattered Clouds
3:53 PM 79.0 °F 50.0 °F 36% 30.09 in 10.0 mi East 16.1 mph 25.3 mph N/A   Partly Cloudy
4:53 PM 77.0 °F 48.0 °F 36% 30.10 in 10.0 mi East 10.4 mph 24.2 mph N/A   Clear
5:53 PM 73.9 °F 53.1 °F 48% 30.12 in 10.0 mi East 13.8 mph 25.3 mph 0.02 in   Mostly Cloudy
6:53 PM 71.1 °F 54.0 °F 55% 30.14 in 10.0 mi East 13.8 mph 21.9 mph N/A   Mostly Cloudy
7:53 PM 70.0 °F 55.0 °F 59% 30.16 in 10.0 mi East 12.7 mph - N/A   Overcast
8:53 PM 68.0 °F 55.0 °F 63% 30.18 in 10.0 mi East 8.1 mph - N/A   Overcast
9:53 PM 66.9 °F 55.0 °F 66% 30.19 in 10.0 mi East 8.1 mph - N/A   Overcast
10:53 PM 64.9 °F 55.0 °F 70% 30.20 in 10.0 mi ENE 5.8 mph - N/A   Scattered Clouds
11:53 PM 63.0 °F 55.0 °F 75% 30.19 in 10.0 mi ENE 4.6 mph - N/A   Clear